Location: *
(52.2090°N, 4.1550°W)
Time: 22:50:25
(UTC+00:00)

Meteor 2-13 Rocket - Pass Details

Date: 19 July 2019
Orbit: 937 x 957 km, 82.5° (Epoch: 24 August)

Event Time Altitude Azimuth Distance (km) Brightness Sun altitude
Rises 23:04:15 0° 349° (NNW) 3,617 9.3 -15.0°
Reaches altitude 10° 23:06:45 10° 350° (N) 2,671 8.2 -15.2°
Maximum altitude 23:12:53 85° 79° (E) 957 4.4 -15.4°
Enters shadow 23:16:51 23° 167° (SSE) 1,884 5.4 -15.6°
